This is the latest recevied weather packets stored in our database for station/object KD7AWQ. If no packets are shown the sender has not sent any weather packets the latest 10 day(s).
| Time | Temp. | Humidity | Pressure | Rain* | Wind** | Luminosity | Snow |
|---|---|---|---|---|---|---|---|
| 1788074463 | 22.78° C | 60% | 1189.5 hPa | 0 mm | - | 0 W/m² | - |
| 1788074159 | 22.78° C | 60% | 1189.3 hPa | 0 mm | - | 0 W/m² | - |
| 1788073857 | 22.78° C | 60% | 1189.3 hPa | 0 mm | - | 0 W/m² | - |
| 1788073552 | 22.78° C | 60% | 1189.3 hPa | 0 mm | - | 0 W/m² | - |
| 1788073247 | 22.78° C | 60% | 1189.7 hPa | 0 mm | - | 0 W/m² | - |
| 1788072946 | 22.78° C | 60% | 1189.6 hPa | 0 mm | - | 0 W/m² | - |
| 1788072645 | 22.78° C | 59% | 1189.7 hPa | 0 mm | - | 0 W/m² | - |
| 1788072345 | 23.33° C | 59% | 1189.7 hPa | 0 mm | - | 0 W/m² | - |
| 1788072040 | 22.78° C | 58% | 1189.5 hPa | 0 mm | - | 0 W/m² | - |
| 1788071740 | 22.78° C | 58% | 1189.2 hPa | 0 mm | - | 0 W/m² | - |
| 1788071439 | 22.78° C | 58% | 1189.5 hPa | 0 mm | - | 0 W/m² | - |
| 1788071139 | 23.33° C | 58% | 1189.5 hPa | 0 mm | - | 0 W/m² | - |
| 1788070834 | 23.89° C | 54% | 1189.2 hPa | 0 mm | - | 0 W/m² | - |
| 1788070528 | 24.44° C | 49% | 1189 hPa | 0 mm | - | 0 W/m² | - |
| 1788070225 | 24.44° C | 49% | 1189.2 hPa | 0 mm | - | 0 W/m² | - |
| 1788069921 | 24.44° C | 49% | 1189.3 hPa | 0 mm | - | 0 W/m² | - |
| 1788069617 | 24.44° C | 49% | 1189.1 hPa | 0 mm | - | 0 W/m² | - |
| 1788069312 | 25° C | 48% | 1189.2 hPa | 0 mm | - | 0 W/m² | - |
| 1788069008 | 25° C | 47% | 1189.2 hPa | 0 mm | - | 0 W/m² | - |
| 1788068703 | 25° C | 46% | 1189.3 hPa | 0 mm | - | 0 W/m² | - |
| 1788068399 | 25° C | 46% | 1189.1 hPa | 0 mm | - | 0 W/m² | - |
| 1788068094 | 25° C | 45% | 1188.9 hPa | 0 mm | - | 0 W/m² | - |
| 1788067793 | 25° C | 45% | 1188.9 hPa | 0 mm | - | 0 W/m² | - |
| 1788067489 | 25.56° C | 44% | 1189.2 hPa | 0 mm | - | 0 W/m² | - |
| 1788067184 | 26.11° C | 42% | 1188.8 hPa | 0 mm | - | 0 W/m² | - |
* Rain latest hour (hover to see other rain measurements)
** Current wind speed in m/s (hover to see current wind gust speed)